Location: Unspecified
(64.9000°N, 0.0000°E)
Time: 09:37:01
(UTC+00:00)

A-11 Canister half - Pass Details

Date: 22 June 2019
Orbit: 1526 x 1683 km, 47.3° (Epoch: 24 July)

Event Time Altitude Azimuth Distance (km) Brightness Sun altitude
Rises 04:52:27 0° 207° (SSW) 4,721 11.1 14.1°
Reaches altitude 10° 04:56:40 10° 191° (S) 3,719 10.7 14.5°
Maximum altitude 05:02:35 19° 151° (SSE) 3,049 10.8 15.1°
Drops below altitude 10° 05:08:27 10° 111° (ESE) 3,697 11.9 15.7°
Sets 05:12:36 0° 95° (E) 4,682 12.7 16.1°
